This demonstration page uses our WeatherBlox Daily Observations layout. Learn more.

Left ArrowRight Arrow

36.17497, -115.13722

Hourly Observations for August 27, 2021

Temp ( °F °C ) Dew Point ( °F °C ) Humidity (%) Winds ( mph kmh ) Pressure ( in mb ) Visibility ( mi km ) Precip ( " mm )
12:53 am 00:53 Clear 81 27.2 14 -10 8 8 NW 7 11 29.74 1007 10 16 0.00 0.00
1:53 am 01:53 Clear 82 27.8 14 -10 8 8 NW 6 9 29.74 1007 10 16 0.00 0.00
2:53 am 02:53 Clear 83 28.3 8 -13.3 6 6 WNW 8 13 29.74 1007 10 16 0.00 0.00
3:53 am 03:53 Clear 78 25.6 17 -8.3 10 10 NW 9 15 29.75 1007 10 16 0.00 0.00
4:53 am 04:53 Clear 78 25.6 18 -7.8 10 10 WNW 7 11 29.75 1008 10 16 0.00 0.00
5:53 am 05:53 Clear 79 26.1 12 -11.1 8 8 WNW 8 13 29.75 1008 10 16 0.00 0.00
6:53 am 06:53 Sunny 79 26.1 16 -8.9 9 9 WNW 9 15 29.77 1008 10 16 0.00 0.00
7:53 am 07:53 Sunny 82 27.8 20 -6.7 10 10 Calm 29.78 1009 10 16 0.00 0.00
8:53 am 08:53 Sunny 89 31.7 16 -8.9 7 7 NNW 9 15 29.78 1009 10 16 0.00 0.00
9:53 am 09:53 Sunny 92 33.3 13 -10.6 5 5 E 5 7 29.79 1009 10 16 0.00 0.00
10:53 am 10:53 Sunny 95 35 13 -10.6 5 5 E 3 6 29.79 1009 10 16 0.00 0.00
11:53 am 11:53 Sunny 99 37.2 10 -12.2 4 4 Calm 29.77 1008 10 16 0.00 0.00
12:53 pm 12:53 Sunny 102 38.9 14 -10 4 4 S 8 13 29.74 1007 10 16 0.00 0.00
1:53 pm 13:53 Sunny 106 41.1 18 -7.8 4 4 VRB 6 9 29.71 1006 10 16 0.00 0.00
2:53 pm 14:53 Sunny 106 41.1 28 -2.2 6 6 S 10 17 29.67 1005 10 16 0.00 0.00
3:53 pm 15:53 Sunny 108 42.2 27 -2.8 6 6 S 17 28 29.64 1004 10 16 0.00 0.00
4:53 pm 16:53 Sunny 107 41.7 29 -1.7 6 6 SW 12 19 29.63 1003 10 16 0.00 0.00
5:53 pm 17:53 Sunny 107 41.7 27 -2.8 6 6 SW 12 19 29.62 1003 10 16 0.00 0.00
6:53 pm 18:53 Sunny 105 40.6 28 -2.2 7 7 WSW 12 19 29.62 1003 10 16 0.00 0.00
7:53 pm 19:53 Clear 102 38.9 31 -0.6 8 8 WSW 9 15 29.63 1003 10 16 0.00 0.00
8:53 pm 20:53 Clear 99 37.2 31 -0.6 9 9 WSW 9 15 29.64 1004 10 16 0.00 0.00
9:53 pm 21:53 Clear 96 35.6 30 -1.1 10 10 ENE 5 7 29.66 1004 10 16 0.00 0.00
10:53 pm 22:53 Clear 94 34.4 32 0 11 11 Calm 29.67 1005 10 16 0.00 0.00
11:53 pm 23:53 Clear 90 32.2 32 0 13 13 SW 5 7 29.68 1005 10 16 0.00 0.00

Powered by AerisWeather